Temp_Advection
nan nan nan nan nan nan nan nan nan nan nan nan nan nan nan nan nan nan nan nan nan nan nan nan nan nan nan nan nan nan nan nan nan nan nan nan nan nan nan nan nan nan nan nan nan
nan -1 -1 -1 -1 -2 -2 -1 -0 -0 -0 0 0 -0 -0 -0 -1 -3 -2 1 1 1 0 -0 -1 -0 -1 -0 -0 -1 -1 -1 -1 0 0 0 1 -0 0 0 0 0 0 0 nan
nan -1 -0 -1 -1 -2 -3 -1 -0 -0 -0 0 0 -1 -1 0 -0 -3 -1 0 1 2 1 -0 -0 -0 -1 -0 -1 -1 -1 -1 0 1 0 0 0 0 -0 -0 0 0 0 -0 nan
nan -0 -0 -0 -0 -1 -2 -2 -1 -0 -0 -0 0 0 -1 -1 -1 -0 0 0 1 2 1 -0 -0 -1 -1 -1 -1 -0 -1 -0 0 1 0 0 0 0 -0 0 0 1 0 -0 nan
nan -0 -0 0 1 -0 -1 -0 -0 0 1 1 0 -0 -0 -1 -2 -1 -0 0 1 1 -0 -0 -0 -1 -1 -1 -0 -1 -0 0 1 0 -0 0 -0 -0 0 1 0 1 1 0 nan
nan -0 1 0 0 -0 -0 0 0 0 2 1 0 0 -0 -2 -1 0 0 1 1 -0 -0 -0 -0 -1 -0 -0 0 0 0 0 0 0 0 -0 -0 0 0 0 0 0 0 0 nan
nan -1 -1 -0 -1 -2 -1 -1 0 0 1 2 1 0 -1 -2 0 -0 0 1 0 -0 -0 -0 -0 0 -0 0 0 1 0 -0 0 0 0 0 -1 -1 -1 -0 0 0 0 0 nan
nan -1 -2 -2 -1 -1 -2 -1 -0 -0 -0 2 1 -0 -1 -1 -0 -0 -0 -0 0 -0 -0 0 0 -0 -0 0 0 0 -0 -1 -0 -0 0 0 -2 -1 2 1 0 0 0 0 nan
nan -0 -1 -1 -2 -2 -1 -1 -1 0 0 0 -0 -0 -1 0 -0 -0 -0 -0 -0 -0 0 0 0 -0 0 0 0 -0 -0 -1 -0 0 0 -0 -1 1 0 0 -0 0 0 1 nan
nan -0 -1 -1 -1 -2 -2 -1 -0 -0 0 -0 -0 -0 -1 -0 0 -0 -0 -0 -0 -0 0 0 0 -0 -0 -0 -1 -1 -1 -1 -0 0 1 -0 0 0 0 0 0 0 0 0 nan
nan -1 0 0 -0 -0 -1 -1 -0 0 0 -0 0 -0 0 -0 -1 -0 -0 -0 -0 -0 -0 -0 0 -1 -1 -1 -1 -1 0 -1 -0 -0 1 -0 -0 0 -1 -0 0 0 0 0 nan
nan -1 -1 -0 -0 -0 -0 -1 -1 -1 -1 -1 -0 -0 -0 -0 -1 -1 -0 -0 -0 -0 -1 0 -1 -3 -0 0 0 0 -1 -1 0 0 0 -0 -0 -0 -0 1 0 -0 -0 -0 nan
nan -0 -0 -0 0 -0 0 -0 0 -0 -1 0 -0 -0 -0 -0 -0 -1 -1 -1 -1 -0 0 -0 -3 -0 0 0 0 0 -0 -1 2 0 0 -0 -0 -0 1 1 -0 -0 -0 -0 nan
nan -0 -0 -0 -0 -0 -0 0 0 -0 -0 -0 -0 -0 0 -0 0 -0 -0 -1 -1 -1 0 -0 -1 1 1 -0 0 -0 -1 0 1 0 0 0 -1 -0 1 0 -0 -0 -0 -0 nan
nan -0 -0 -0 -0 -0 -0 0 0 -0 -0 -0 -0 -0 -0 -0 -0 0 0 -0 -1 -1 -0 1 0 1 -0 -0 -0 -1 0 1 1 1 0 0 -0 0 -0 -1 -0 -0 -1 -1 nan
nan 0 0 -1 -0 0 0 0 -0 0 -0 -0 -0 0 -0 -0 0 0 -0 -1 -0 -2 -0 -0 -1 -1 0 0 0 1 1 0 1 2 0 -1 -0 1 1 0 -0 -1 -1 -1 nan
nan -0 -0 0 -0 0 0 0 0 -0 0 0 -0 -0 -0 -0 -0 -0 -0 -0 0 -1 -0 0 0 1 -2 1 1 2 1 0 1 0 -1 -0 0 -0 -1 -0 -0 -1 -1 -0 nan
nan -0 0 0 1 0 0 -1 -1 -0 -0 -0 -0 -0 -0 -0 -0 -1 -0 -0 0 -0 -1 -1 0 -1 -0 -1 2 1 0 -1 -1 -1 -1 1 2 -0 0 -1 -1 -1 -0 -1 nan
nan 0 -0 0 0 0 -0 -1 -0 0 -0 -0 -1 -0 -0 -0 -0 -0 -0 0 -0 0 0 -1 0 -0 -0 -0 -1 1 -0 0 -0 0 2 -0 -0 0 -0 -0 -0 -0 -1 -1 nan
nan 0 -1 0 0 0 -1 -1 0 0 -0 -0 -0 -0 -0 -0 -0 -0 -0 0 0 0 0 0 -0 -0 -0 -0 -1 -2 1 2 0 1 0 -0 0 1 0 -1 -0 -0 -1 -1 nan
nan -0 -1 0 0 -1 -1 0 0 -0 -0 -0 0 -0 -0 -0 -0 -0 0 0 0 -0 -0 0 -0 -0 -0 -1 -1 -1 -1 -1 -0 -1 0 -1 -1 -1 -1 -1 -1 -1 -1 -1 nan
nan -0 -0 0 -0 -0 -0 -0 -0 -0 -0 -0 -0 -0 0 -0 -0 -0 0 0 -0 -1 -0 0 0 -0 -0 -0 -0 -0 -1 -1 -1 1 0 -1 -1 -0 -0 -0 -1 -1 -1 -1 nan
nan -0 0 -0 -0 -0 -0 -0 -0 -0 -0 -0 -0 -0 -0 0 0 -0 -0 -0 -0 -1 -0 -0 -0 0 0 0 -1 -0 -0 -1 -1 -0 -1 0 -0 -0 -0 -0 -0 -0 -1 -1 nan
nan -0 -0 -1 -0 -0 -0 -0 -0 -0 -0 -0 0 -0 -1 -0 0 -0 -0 -0 -0 -1 0 -1 -1 -1 -1 -1 -0 -0 -1 -0 -0 -1 -1 -1 -0 -1 -0 -0 -0 -1 -0 -0 nan
nan -0 -0 -0 -0 -0 -0 -0 -0 -0 -0 -0 -0 -0 -0 -0 -1 -1 -0 -1 -1 -0 -0 -1 -1 -0 0 -0 -1 -1 -1 -0 -1 -1 -0 -1 -0 -0 0 -0 -0 -1 -0 -1 nan
nan -0 -0 -0 -0 -0 -0 -0 -0 -0 -0 -0 -0 -0 -0 -0 -1 -0 -0 -0 -0 -1 -1 -0 -0 -1 0 -0 -2 -1 -0 -0 -0 -1 -0 -0 -0 0 0 -0 -0 -0 -1 -1 nan
nan nan nan nan nan nan nan nan nan nan nan nan nan nan nan nan nan nan nan nan nan nan nan nan nan nan nan nan nan nan nan nan nan nan nan nan nan nan nan nan nan nan nan nan nan
Wind_Speed
16 16 18 18 19 19 19 18 19 19 19 19 19 19 19 20 22 23 27 23 14 17 14 19 18 17 16 15 13 11 8 11 17 15 8 9 12 6 9 10 11 12 2 8 17
19 18 19 20 20 20 20 20 20 21 21 21 20 20 20 21 22 32 32 27 24 19 22 26 26 22 21 19 12 13 11 15 11 8 5 8 11 13 9 14 12 12 8 10 17
19 19 21 22 22 21 21 19 20 20 21 20 19 19 19 17 17 20 13 14 21 29 21 23 21 23 20 16 22 16 16 18 5 7 4 6 8 8 14 14 19 20 16 13 16
21 23 23 24 24 23 22 21 20 20 20 20 19 16 15 5 8 7 6 6 12 24 24 25 24 27 16 17 25 12 27 19 9 7 6 8 4 10 14 7 7 16 18 17 18
23 24 25 26 25 25 24 23 23 22 21 19 14 11 8 11 21 16 9 5 9 25 31 33 31 31 19 20 19 23 17 20 14 5 12 6 10 11 15 16 5 12 15 18 16
26 26 26 27 28 28 26 25 23 22 21 17 13 11 11 13 15 15 16 18 16 27 28 32 27 37 12 20 21 15 26 19 13 20 13 9 13 9 12 15 18 12 12 15 15
26 27 26 24 25 26 27 26 25 22 21 18 13 13 18 31 5 6 11 14 19 28 27 34 23 29 17 15 21 25 11 17 18 13 11 14 17 17 23 10 18 21 18 17 16
27 29 28 26 26 26 27 25 23 20 20 18 13 15 15 16 16 22 18 18 21 23 26 24 32 23 20 8 11 16 16 18 14 20 11 12 18 16 28 23 23 20 17 17 17
29 30 28 30 31 26 21 21 20 14 4 3 12 12 11 8 9 11 15 21 19 20 25 16 27 25 26 15 15 17 18 23 20 20 12 18 10 14 4 7 10 14 18 19 17
30 31 30 29 29 21 24 17 9 4 2 2 4 9 10 4 13 11 8 16 21 21 20 19 20 16 20 19 24 19 22 21 21 17 21 18 19 6 3 5 8 7 7 9 10
31 32 32 29 28 21 26 13 5 3 3 6 6 16 18 20 19 3 6 5 22 26 22 22 19 28 40 32 25 21 24 25 23 10 13 21 15 20 11 8 7 9 5 5 7
32 32 31 31 24 17 17 8 7 6 9 14 12 11 14 12 14 17 15 8 20 24 25 17 27 35 24 27 26 27 27 27 16 13 10 12 18 17 15 12 2 3 5 7 10
32 30 31 30 13 15 10 5 11 4 6 3 9 10 12 18 8 10 13 17 19 24 27 27 33 26 26 27 28 30 30 24 22 12 11 10 17 14 13 8 5 4 5 7 10
30 25 30 27 10 16 6 13 13 3 5 4 12 6 17 18 3 11 11 7 11 23 24 19 34 20 30 29 28 28 27 23 22 14 11 15 12 21 18 11 5 5 8 10 11
26 25 27 24 14 13 18 19 2 6 3 7 13 9 19 10 11 8 13 8 12 21 11 19 23 25 21 29 26 29 18 24 24 17 14 18 7 10 19 14 8 7 10 11 12
25 23 27 18 16 16 16 7 3 5 6 8 14 15 16 15 7 16 15 11 5 9 19 9 15 7 28 22 19 16 8 16 16 13 13 26 16 12 13 9 7 8 11 12 13
22 21 23 17 24 18 9 2 2 6 7 12 16 14 13 16 10 16 9 14 10 8 16 21 10 8 9 24 19 16 17 8 11 10 14 19 16 6 10 10 9 8 11 13 15
18 22 20 19 22 13 5 10 10 10 15 17 14 14 10 16 9 11 13 11 15 14 6 4 7 9 10 6 22 22 24 11 19 15 17 11 12 8 13 14 12 11 12 14 16
15 17 24 23 26 13 9 12 9 11 13 13 13 12 12 14 13 9 8 13 10 15 8 7 2 8 9 7 5 20 20 26 12 16 17 9 9 8 12 10 11 13 15 17 17
12 15 24 24 22 14 16 16 8 13 11 13 13 11 14 15 11 12 14 12 14 14 9 5 6 11 6 9 9 7 8 12 9 13 10 7 11 11 10 7 9 12 17 19 19
12 10 22 19 11 19 11 13 10 18 13 13 14 9 13 15 12 9 10 7 18 15 9 8 4 7 4 8 19 9 6 4 4 9 13 8 5 8 9 9 10 12 16 20 21
16 6 28 14 17 13 10 9 11 13 11 11 12 12 12 13 9 10 11 11 18 21 11 7 5 4 7 9 9 14 12 6 3 11 2 5 5 8 8 10 12 13 16 18 18
7 11 19 20 8 8 12 14 7 13 14 11 14 9 14 9 6 13 13 12 16 17 15 10 4 2 8 2 13 9 21 16 7 3 7 4 6 7 12 13 14 15 18 18 19
6 4 8 23 17 13 9 13 11 9 10 14 11 11 13 9 8 8 14 11 11 20 16 10 13 15 11 11 9 10 23 24 11 6 10 10 14 12 13 13 17 19 18 18 20
9 6 5 9 12 15 8 11 14 10 11 15 8 13 12 7 8 11 14 13 11 21 13 6 10 17 15 18 23 24 24 23 25 18 9 11 15 13 13 14 18 19 17 22 25
7 4 7 11 18 13 14 13 13 12 10 10 11 11 11 8 9 9 11 12 11 11 10 4 4 13 14 11 22 24 23 23 15 20 15 12 9 16 17 17 20 19 21 25 26
8 11 7 14 15 9 12 11 10 10 4 9 11 9 6 6 7 7 11 12 12 13 11 7 6 6 5 3 3 10 20 14 9 15 14 13 10 17 17 21 20 15 25 26 27
Wind_Direction
339 334 330 326 320 315 309 303 300 296 292 289 285 282 280 280 279 277 262 263 265 238 202 199 193 197 196 208 214 223 237 237 220 222 223 146 191 187 200 192 189 192 179 120 159
340 336 331 327 322 318 312 308 304 300 296 292 291 287 285 282 285 273 275 269 252 237 208 188 192 188 192 206 206 206 228 239 251 237 240 177 206 166 180 198 205 200 176 158 168
340 336 332 328 324 317 312 305 302 299 296 292 288 287 284 294 301 281 279 244 233 220 206 196 192 189 207 205 207 219 235 234 236 244 238 208 209 194 209 202 211 204 191 172 172
343 337 331 327 324 317 312 305 301 299 296 293 288 282 279 273 261 254 243 230 221 200 188 192 195 197 209 208 213 243 226 248 273 199 225 217 215 206 215 201 217 204 199 188 187
342 335 331 327 322 315 311 307 303 301 296 293 290 268 275 237 243 261 249 225 205 183 191 193 196 201 213 213 226 220 239 226 222 204 232 240 230 228 221 217 136 171 184 196 198
339 333 330 328 324 318 312 304 299 295 291 288 276 251 231 252 256 250 250 247 225 189 198 197 208 204 230 230 217 225 234 241 237 234 232 236 243 232 236 218 209 191 187 194 205
338 335 334 332 322 313 305 298 295 292 288 279 256 243 236 236 245 258 247 215 211 206 205 205 206 200 218 233 224 236 244 231 225 218 231 224 252 235 239 228 224 218 220 224 224
339 338 342 344 337 324 315 309 301 288 283 274 239 225 242 261 273 264 255 236 209 219 216 217 212 226 224 234 189 220 229 235 203 213 213 191 249 222 235 228 233 225 223 224 231
341 344 345 351 343 337 325 318 309 298 283 250 187 205 266 276 296 289 251 232 220 213 211 220 210 221 215 219 212 209 224 223 230 190 194 202 241 226 156 195 228 229 236 233 240
343 346 343 348 346 348 343 340 330 106 176 145 224 198 265 326 335 293 284 224 213 201 207 205 204 212 219 204 216 213 220 236 223 185 210 208 230 132 152 198 215 211 210 208 213
343 344 343 342 345 335 352 353 336 208 209 258 314 257 299 307 300 274 304 242 210 203 202 192 205 213 210 212 222 229 226 221 228 160 202 227 228 229 172 197 224 223 259 305 291
344 344 344 346 344 345 2 54 45 308 308 301 296 294 307 337 301 288 274 250 205 215 206 198 219 225 222 220 224 230 241 231 225 154 201 226 227 230 219 219 312 341 311 315 318
347 347 349 351 352 349 348 20 351 337 261 52 32 14 344 334 297 340 351 249 251 223 215 214 227 225 226 223 221 222 224 230 219 169 212 259 248 214 209 182 124 50 10 358 346
346 344 355 355 1 339 359 318 312 258 266 49 8 15 343 333 215 353 338 297 233 246 226 224 236 230 221 225 221 228 219 236 233 187 214 190 253 214 174 152 122 59 37 20 8
348 342 347 357 344 344 320 324 268 190 248 33 356 333 338 6 332 346 348 320 255 243 248 224 232 231 226 223 227 235 232 216 231 223 226 189 233 236 148 156 127 70 44 28 18
357 358 351 354 345 326 331 344 149 232 60 12 358 356 353 357 18 355 14 15 286 293 244 263 288 300 227 230 227 235 221 243 231 220 224 223 206 212 177 159 120 75 43 27 17
7 8 8 1 338 353 346 273 257 39 8 347 354 351 5 355 1 8 13 39 23 326 223 230 247 235 358 213 208 208 183 189 207 203 220 205 215 120 108 87 73 56 41 28 21
16 22 17 15 13 10 350 58 51 5 8 343 340 341 20 13 338 34 29 22 25 7 309 295 201 357 25 315 209 201 187 198 202 199 210 194 206 114 114 97 76 51 40 32 23
33 24 32 31 31 9 53 57 35 4 340 332 347 357 354 6 348 21 32 25 10 14 347 347 215 17 51 320 337 197 209 203 231 230 207 136 104 114 121 91 64 46 32 22 16
22 28 22 31 27 51 66 71 54 16 351 359 6 6 357 360 350 14 9 18 3 358 350 345 294 24 42 2 345 290 207 197 226 204 195 157 159 139 140 67 40 25 19 13 10
32 42 16 32 32 53 55 53 32 24 11 11 358 349 357 2 351 12 12 26 359 346 357 331 267 25 33 47 33 354 14 311 247 232 190 147 101 24 56 33 20 14 6 4 5
40 56 6 19 61 51 46 27 13 19 13 9 10 358 354 351 348 14 2 16 4 354 353 25 302 54 95 116 78 41 12 333 296 178 112 65 103 42 35 27 12 4 1 357 359
45 48 22 39 33 33 37 30 15 7 21 359 12 355 347 349 340 4 5 9 4 5 355 338 28 208 150 210 30 24 13 1 279 276 30 129 126 54 32 24 13 5 358 355 356
38 26 24 32 40 21 10 12 16 31 19 1 19 6 353 360 360 353 1 350 359 6 359 69 56 63 73 73 54 34 28 20 28 51 76 60 93 31 19 9 2 1 357 356 352
40 55 3 19 23 30 24 8 14 13 350 15 13 11 1 4 4 12 8 360 17 6 14 81 89 93 93 83 63 49 38 33 35 28 64 100 62 24 11 358 354 352 354 355 353
64 15 42 42 20 31 18 11 11 358 1 7 1 354 27 42 42 12 13 12 29 343 358 359 107 111 126 98 73 48 31 40 32 29 49 43 48 2 4 359 357 359 1 353 348
71 68 81 27 33 30 15 3 356 347 24 4 346 325 20 37 32 41 49 47 33 20 356 354 176 224 166 280 322 37 19 22 67 49 35 38 1 356 357 353 351 2 355 347 343
Height
1500 1497 1494 1490 1487 1484 1482 1480 1478 1476 1474 1473 1471 1471 1470 1469 1468 1466 1461 1463 1466 1467 1470 1473 1477 1479 1482 1482 1483 1483 1477 1465 1459 1456 1455 1461 1463 1468 1470 1471 1477 1479 1481 1483 1486
1499 1495 1491 1488 1484 1482 1479 1476 1475 1472 1471 1469 1468 1467 1466 1464 1462 1455 1454 1456 1460 1462 1465 1468 1472 1476 1477 1477 1480 1477 1468 1457 1451 1451 1456 1461 1463 1466 1471 1472 1476 1478 1481 1482 1486
1497 1493 1490 1485 1481 1478 1475 1472 1470 1468 1466 1465 1464 1463 1462 1463 1461 1446 1445 1446 1448 1454 1462 1466 1471 1473 1472 1472 1471 1468 1459 1454 1454 1460 1461 1461 1464 1465 1467 1467 1470 1474 1479 1482 1485
1494 1490 1486 1481 1477 1473 1470 1467 1465 1463 1462 1460 1459 1459 1458 1462 1457 1443 1442 1443 1445 1448 1458 1462 1466 1469 1466 1463 1463 1462 1457 1455 1455 1460 1464 1462 1463 1463 1465 1464 1467 1472 1476 1480 1483
1491 1487 1483 1478 1473 1469 1466 1463 1460 1459 1457 1456 1456 1457 1457 1457 1443 1442 1442 1443 1444 1446 1450 1454 1457 1461 1458 1454 1458 1457 1453 1455 1458 1462 1463 1463 1463 1462 1462 1466 1468 1471 1474 1478 1481
1489 1484 1478 1473 1469 1465 1461 1458 1456 1454 1451 1451 1453 1453 1455 1452 1438 1438 1438 1438 1441 1444 1448 1451 1449 1450 1450 1449 1451 1449 1454 1451 1456 1457 1461 1462 1460 1462 1459 1464 1467 1470 1473 1476 1479
1486 1480 1475 1470 1465 1460 1456 1452 1449 1447 1446 1445 1448 1450 1449 1434 1434 1434 1435 1437 1440 1441 1441 1444 1448 1450 1448 1446 1448 1449 1452 1450 1449 1457 1457 1460 1458 1453 1457 1460 1463 1467 1471 1474 1476
1483 1477 1471 1466 1460 1454 1449 1445 1442 1441 1439 1439 1442 1445 1436 1432 1431 1429 1431 1431 1433 1437 1441 1444 1446 1446 1445 1445 1446 1448 1449 1443 1439 1449 1454 1458 1441 1444 1449 1455 1458 1462 1466 1470 1473
1480 1474 1468 1463 1456 1450 1445 1440 1436 1434 1435 1436 1440 1442 1433 1427 1426 1426 1426 1428 1430 1433 1437 1439 1442 1442 1444 1444 1443 1437 1428 1432 1435 1437 1445 1452 1443 1440 1447 1451 1453 1457 1461 1465 1470
1478 1472 1466 1461 1454 1448 1443 1437 1433 1433 1435 1437 1439 1443 1430 1427 1425 1423 1423 1423 1426 1429 1433 1435 1438 1436 1431 1428 1410 1423 1430 1426 1424 1432 1439 1442 1442 1444 1448 1449 1452 1455 1459 1463 1466
1476 1470 1464 1458 1452 1446 1440 1437 1439 1436 1435 1433 1435 1431 1427 1427 1424 1422 1421 1421 1422 1423 1419 1425 1428 1407 1394 1406 1416 1411 1412 1420 1417 1426 1436 1434 1439 1438 1446 1450 1452 1453 1455 1460 1463
1474 1467 1461 1456 1451 1447 1445 1443 1447 1447 1439 1434 1432 1432 1430 1428 1424 1420 1422 1420 1417 1409 1415 1418 1405 1387 1407 1410 1415 1416 1410 1405 1414 1420 1435 1432 1434 1434 1436 1443 1452 1457 1458 1460 1461
1472 1466 1460 1454 1449 1449 1446 1445 1444 1444 1441 1433 1434 1433 1432 1430 1423 1421 1420 1415 1410 1406 1400 1401 1378 1405 1404 1403 1405 1406 1407 1407 1406 1429 1434 1434 1430 1429 1435 1445 1455 1458 1459 1459 1459
1470 1465 1460 1454 1452 1447 1447 1444 1441 1442 1431 1436 1435 1434 1431 1427 1423 1425 1422 1422 1409 1397 1396 1396 1385 1392 1398 1396 1399 1399 1402 1412 1411 1422 1434 1434 1424 1415 1430 1448 1454 1458 1459 1459 1459
1469 1463 1459 1452 1450 1448 1446 1440 1438 1441 1425 1441 1439 1438 1434 1431 1429 1423 1421 1418 1410 1400 1396 1383 1385 1390 1389 1389 1396 1390 1404 1408 1413 1416 1426 1424 1432 1417 1429 1444 1453 1460 1460 1460 1460
1469 1463 1458 1454 1451 1448 1441 1439 1440 1433 1445 1446 1442 1438 1434 1430 1428 1425 1424 1421 1418 1408 1395 1395 1387 1393 1383 1392 1392 1400 1408 1411 1411 1419 1432 1414 1421 1413 1425 1434 1453 1460 1462 1462 1462
1470 1465 1460 1457 1451 1445 1441 1441 1437 1448 1451 1454 1444 1440 1438 1434 1427 1427 1427 1426 1426 1415 1391 1387 1394 1392 1393 1385 1394 1401 1410 1413 1418 1414 1403 1408 1416 1416 1446 1454 1460 1464 1465 1464 1461
1473 1469 1464 1459 1453 1447 1444 1442 1454 1458 1458 1454 1447 1442 1439 1438 1432 1432 1430 1429 1429 1427 1414 1396 1391 1406 1405 1403 1381 1392 1386 1382 1389 1395 1391 1396 1409 1449 1453 1460 1466 1469 1468 1465 1464
1475 1474 1467 1462 1457 1451 1448 1458 1471 1469 1466 1458 1448 1446 1442 1440 1435 1435 1436 1436 1433 1432 1431 1419 1401 1407 1409 1412 1405 1381 1382 1370 1371 1367 1378 1418 1450 1454 1459 1463 1467 1469 1470 1469 1466
1479 1476 1471 1469 1465 1461 1458 1468 1474 1473 1468 1460 1457 1451 1450 1445 1440 1439 1442 1438 1437 1433 1432 1427 1416 1412 1413 1409 1407 1402 1382 1387 1382 1378 1380 1417 1428 1440 1456 1465 1468 1471 1471 1471 1468
1481 1478 1478 1472 1471 1469 1468 1476 1476 1476 1473 1469 1465 1458 1455 1452 1445 1445 1446 1442 1441 1433 1430 1431 1423 1415 1412 1433 1434 1417 1408 1399 1381 1368 1357 1407 1452 1473 1474 1476 1474 1474 1474 1472 1469
1485 1484 1485 1478 1476 1478 1480 1483 1483 1480 1476 1474 1471 1465 1463 1457 1451 1447 1447 1447 1446 1440 1433 1432 1428 1423 1431 1437 1437 1441 1436 1425 1402 1367 1371 1403 1466 1483 1483 1483 1481 1479 1477 1475 1472
1491 1491 1491 1485 1483 1482 1487 1488 1487 1485 1483 1478 1475 1472 1466 1461 1459 1453 1451 1451 1450 1447 1441 1436 1431 1424 1432 1434 1436 1447 1443 1436 1422 1404 1431 1410 1473 1486 1485 1485 1484 1482 1479 1476 1473
1494 1493 1494 1494 1497 1496 1493 1493 1491 1490 1487 1485 1481 1476 1471 1463 1461 1459 1456 1454 1453 1453 1445 1444 1451 1448 1451 1468 1469 1464 1453 1449 1430 1423 1453 1462 1480 1488 1488 1488 1486 1483 1481 1477 1474
1500 1507 1508 1504 1501 1501 1499 1499 1496 1494 1492 1488 1482 1481 1478 1472 1463 1466 1463 1458 1455 1457 1449 1451 1464 1464 1470 1470 1471 1472 1471 1467 1458 1460 1456 1487 1490 1495 1491 1490 1488 1486 1482 1478 1474
1506 1508 1511 1510 1508 1505 1505 1503 1502 1500 1496 1492 1491 1486 1484 1484 1484 1483 1473 1472 1474 1464 1457 1453 1459 1464 1466 1458 1467 1479 1484 1481 1487 1490 1484 1488 1487 1494 1491 1490 1488 1485 1483 1480 1477
1511 1513 1513 1513 1511 1508 1511 1508 1506 1503 1499 1498 1496 1489 1488 1492 1489 1486 1482 1480 1479 1474 1468 1460 1458 1454 1461 1463 1458 1482 1501 1498 1504 1507 1500 1496 1500 1495 1490 1489 1487 1485 1486 1483 1479